| time (UTC) | temp F | wind direction | speed MPH | gust MPH | rain 1hr in | rain 24hr in | rain mn in | humidity % | barometer mb |
| 20260510163043 | 56 | 29 | 5.0 | 12.0 | 0.00 | 0.00 | 0.00 | 64 | 1015.6 |
| 20260510161544 | 56 | 290 | 5.0 | 11.0 | 0.00 | 0.00 | 0.00 | 65 | 1015.6 |
| 20260510160042 | 56 | 42 | 5.0 | 12.0 | 0.00 | 0.00 | 0.00 | 66 | 1015.9 |
| 20260510154539 | 56 | 28 | 5.0 | 12.0 | 0.00 | 0.00 | 0.00 | 65 | 1016.0 |
| 20260510153046 | 56 | 345 | 6.0 | 13.0 | 0.00 | 0.00 | 0.00 | 68 | 1016.2 |
| 20260510151539 | 57 | 5 | 7.0 | 16.0 | 0.00 | 0.00 | 0.00 | 66 | 1016.3 |
| 20260510150043 | 56 | 11 | 9.0 | 14.0 | 0.00 | 0.00 | 0.00 | 67 | 1016.3 |
| 20260510144549 | 56 | 360 | 9.0 | 15.0 | 0.00 | 0.00 | 0.00 | 68 | 1016.5 |
| 20260510143043 | 57 | 40 | 6.0 | 15.0 | 0.00 | 0.00 | 0.00 | 69 | 1016.6 |
| 20260510141543 | 56 | 16 | 8.0 | 16.0 | 0.00 | 0.00 | 0.00 | 69 | 1016.7 |
| 20260510140043 | 57 | 19 | 7.0 | 12.0 | 0.00 | 0.00 | 0.00 | 68 | 1017.0 |
| 20260510134547 | 57 | 355 | 7.0 | 13.0 | 0.00 | 0.00 | 0.00 | 68 | 1017.1 |
| 20260510133044 | 56 | 352 | 7.0 | 13.0 | 0.00 | 0.00 | 0.00 | 71 | 1017.1 |
| 20260510131544 | 55 | 355 | 9.0 | 16.0 | 0.00 | 0.00 | 0.00 | 72 | 1017.1 |
| 20260510130043 | 55 | 36 | 6.0 | 14.0 | 0.00 | 0.00 | 0.00 | 73 | 1017.2 |
| 20260510124550 | 56 | 17 | 7.0 | 12.0 | 0.00 | 0.00 | 0.00 | 72 | 1017.4 |
| 20260510123038 | 55 | 32 | 7.0 | 13.0 | 0.00 | 0.00 | 0.00 | 75 | 1017.4 |
| 20260510121552 | 55 | 5 | 7.0 | 12.0 | 0.00 | 0.00 | 0.00 | 74 | 1017.4 |
| 20260510120043 | 55 | 89 | 2.0 | 5.0 | 0.00 | 0.00 | 0.00 | 76 | 1017.7 |
| 20260510114543 | 55 | 62 | 5.0 | 12.0 | 0.00 | 0.00 | 0.00 | 76 | 1017.8 |
| 20260510113043 | 54 | 14 | 4.0 | 12.0 | 0.00 | 0.00 | 0.00 | 76 | 1017.9 |
| 20260510111539 | 55 | 355 | 4.0 | 12.0 | 0.00 | 0.00 | 0.00 | 76 | 1018.1 |
| 20260510110045 | 55 | 60 | 6.0 | 14.0 | 0.00 | 0.00 | 0.00 | 76 | 1018.0 |
| 20260510104538 | 55 | 5 | 5.0 | 13.0 | 0.00 | 0.00 | 0.00 | 77 | 1018.1 |
| 20260510103046 | 55 | 360 | 8.0 | 14.0 | 0.00 | 0.00 | 0.00 | 77 | 1018.2 |
| 20260510101544 | 55 | 24 | 8.0 | 12.0 | 0.00 | 0.00 | 0.00 | 76 | 1018.1 |
| 20260510100051 | 54 | 5 | 6.0 | 12.0 | 0.00 | 0.00 | 0.00 | 79 | 1018.4 |
| 20260510094545 | 53 | 9 | 6.0 | 12.0 | 0.00 | 0.00 | 0.00 | 77 | 1018.3 |
| 20260510093045 | 53 | 22 | 8.0 | 15.0 | 0.00 | 0.00 | 0.00 | 79 | 1018.4 |
| 20260510091544 | 52 | 347 | 7.0 | 15.0 | 0.00 | 0.00 | 0.00 | 80 | 1018.6 |
| 20260510090057 | 52 | 20 | 7.0 | 15.0 | 0.00 | 0.00 | 0.00 | 79 | 1018.5 |
| 20260510084551 | 53 | 28 | 8.0 | 16.0 | 0.00 | 0.00 | 0.00 | 80 | 1018.6 |
| 20260510083041 | 53 | 19 | 10.0 | 16.0 | 0.00 | 0.00 | 0.00 | 81 | 1018.6 |
| 20260510081538 | 52 | 20 | 11.0 | 18.0 | 0.00 | 0.00 | 0.00 | 81 | 1018.6 |
| 20260510080046 | 51 | 5 | 10.0 | 17.0 | 0.00 | 0.00 | 0.00 | 83 | 1018.5 |
| 20260510074558 | 50 | 12 | 10.0 | 18.0 | 0.00 | 0.00 | 0.00 | 84 | 1018.4 |
| 20260510073047 | 50 | 315 | 10.0 | 15.0 | 0.00 | 0.00 | 0.00 | 84 | 1018.3 |
| 20260510071554 | 49 | 13 | 8.0 | 14.0 | 0.00 | 0.00 | 0.00 | 84 | 1018.3 |
| 20260510070042 | 49 | 350 | 7.0 | 14.0 | 0.00 | 0.00 | 0.00 | 84 | 1018.1 |
| 20260510064549 | 49 | 21 | 7.0 | 14.0 | 0.00 | 0.00 | 0.00 | 84 | 1018.1 |
| 20260510063047 | 49 | 21 | 9.0 | 14.0 | 0.00 | 0.00 | 0.00 | 84 | 1017.9 |
| 20260510061544 | 49 | 30 | 9.0 | 14.0 | 0.00 | 0.00 | 0.00 | 84 | 1018.0 |
| 20260510060053 | 49 | 13 | 10.0 | 15.0 | 0.00 | 0.00 | 0.00 | 85 | 1017.9 |
| 20260510054543 | 49 | 25 | 7.0 | 12.0 | 0.00 | 0.00 | 0.00 | 85 | 1017.9 |
| 20260510053042 | 49 | 344 | 8.0 | 13.0 | 0.00 | 0.00 | 0.00 | 84 | 1017.7 |
| 20260510051546 | 49 | 5 | 9.0 | 14.0 | 0.00 | 0.00 | 0.00 | 84 | 1017.7 |
| 20260510050046 | 49 | 26 | 11.0 | 17.0 | 0.00 | 0.00 | 0.00 | 84 | 1017.8 |
| 20260510044545 | 49 | 16 | 13.0 | 17.0 | 0.00 | 0.00 | 0.00 | 84 | 1017.7 |
| 20260510043049 | 49 | 355 | 9.0 | 13.0 | 0.00 | 0.00 | 0.00 | 84 | 1017.8 |
| 20260510041604 | 49 | 40 | 7.0 | 14.0 | 0.00 | 0.00 | 0.00 | 83 | 1017.8 |
| 20260510040043 | 50 | 5 | 8.0 | 15.0 | 0.00 | 0.00 | 0.00 | 81 | 1017.8 |
| 20260510034538 | 51 | 360 | 8.0 | 17.0 | 0.00 | 0.00 | 0.00 | 79 | 1017.8 |
| 20260510033046 | 51 | 24 | 10.0 | 18.0 | 0.00 | 0.00 | 0.00 | 78 | 1017.8 |
| 20260510031545 | 51 | 347 | 8.0 | 17.0 | 0.00 | 0.00 | 0.00 | 78 | 1018.0 |
| 20260510030049 | 51 | 17 | 10.0 | 16.0 | 0.00 | 0.00 | 0.00 | 77 | 1018.0 |
| 20260510024552 | 52 | 52 | 10.0 | 18.0 | 0.00 | 0.00 | 0.00 | 76 | 1018.1 |
| 20260510023038 | 52 | 13 | 11.0 | 19.0 | 0.00 | 0.00 | 0.00 | 77 | 1017.9 |
| 20260510021537 | 52 | 13 | 11.0 | 20.0 | 0.00 | 0.00 | 0.00 | 78 | 1017.8 |
| 20260510020051 | 52 | 5 | 10.0 | 16.0 | 0.00 | 0.00 | 0.00 | 79 | 1017.9 |
| 20260510014545 | 52 | 5 | 10.0 | 18.0 | 0.00 | 0.00 | 0.00 | 79 | 1017.9 |
| 20260510013048 | 53 | 37 | 9.0 | 16.0 | 0.00 | 0.00 | 0.00 | 80 | 1017.9 |
| 20260510011541 | 53 | 11 | 9.0 | 13.0 | 0.00 | 0.00 | 0.00 | 81 | 1017.9 |
| 20260510010056 | 53 | 340 | 7.0 | 14.0 | 0.00 | 0.00 | 0.00 | 81 | 1017.8 |
| 20260510004539 | 53 | 9 | 7.0 | 13.0 | 0.00 | 0.00 | 0.00 | 81 | 1017.9 |
| 20260510003044 | 54 | 349 | 6.0 | 12.0 | 0.00 | 0.00 | 0.00 | 81 | 1017.9 |
| 20260510001543 | 54 | 22 | 5.0 | 15.0 | 0.00 | 0.00 | 0.00 | 81 | 1018.0 |
| 20260510000044 | 54 | 338 | 7.0 | 18.0 | 0.00 | 0.00 | 0.00 | 81 | 1017.9 |
| 20260509234558 | 54 | 5 | 11.0 | 18.0 | 0.00 | 0.00 | 0.00 | 82 | 1017.6 |
| 20260509233039 | 54 | 15 | 12.0 | 19.0 | 0.00 | 0.00 | 0.00 | 82 | 1017.5 |
| 20260509231545 | 55 | 13 | 13.0 | 20.0 | 0.00 | 0.00 | 0.00 | 82 | 1017.5 |
| 20260509230045 | 55 | 5 | 13.0 | 20.0 | 0.00 | 0.00 | 0.00 | 82 | 1017.4 |
| 20260509224543 | 55 | 355 | 16.0 | 24.0 | 0.00 | 0.00 | 0.00 | 83 | 1017.2 |
| 20260509223045 | 54 | 5 | 13.0 | 23.0 | 0.00 | 0.00 | 0.00 | 83 | 1017.3 |
| 20260509221602 | 54 | 352 | 13.0 | 20.0 | 0.00 | 0.00 | 0.00 | 83 | 1017.3 |
| 20260509220045 | 54 | 346 | 14.0 | 20.0 | 0.00 | 0.00 | 0.00 | 83 | 1017.3 |
| 20260509214547 | 54 | 23 | 13.0 | 19.0 | 0.00 | 0.00 | 0.00 | 83 | 1017.5 |
| 20260509213046 | 54 | 5 | 12.0 | 19.0 | 0.00 | 0.00 | 0.00 | 83 | 1017.4 |
| 20260509211623 | 54 | 45 | 13.0 | 19.0 | 0.00 | 0.00 | 0.00 | 83 | 1017.4 |
| 20260509210053 | 54 | 24 | 12.0 | 18.0 | 0.00 | 0.00 | 0.00 | 83 | 1017.4 |
| 20260509204543 | 54 | 5 | 12.0 | 18.0 | 0.00 | 0.00 | 0.00 | 82 | 1017.4 |
| 20260509203048 | 54 | 355 | 11.0 | 16.0 | 0.00 | 0.00 | 0.00 | 82 | 1017.4 |
| 20260509201537 | 55 | 5 | 12.0 | 19.0 | 0.00 | 0.00 | 0.00 | 82 | 1017.3 |
| 20260509200043 | 55 | 346 | 12.0 | 19.0 | 0.00 | 0.00 | 0.00 | 83 | 1017.2 |
| 20260509194543 | 55 | 15 | 12.0 | 20.0 | 0.00 | 0.00 | 0.00 | 82 | 1017.2 |
| 20260509193051 | 55 | 355 | 12.0 | 18.0 | 0.00 | 0.00 | 0.00 | 82 | 1017.2 |
| 20260509191606 | 56 | 349 | 11.0 | 17.0 | 0.00 | 0.00 | 0.00 | 82 | 1017.3 |
| 20260509190054 | 56 | 15 | 10.0 | 15.0 | 0.00 | 0.00 | 0.00 | 83 | 1017.1 |
| 20260509184543 | 56 | 348 | 11.0 | 16.0 | 0.00 | 0.00 | 0.00 | 83 | 1017.1 |
| 20260509183043 | 56 | 355 | 11.0 | 17.0 | 0.00 | 0.00 | 0.00 | 82 | 1017.0 |
| 20260509181542 | 57 | 350 | 13.0 | 17.0 | 0.00 | 0.00 | 0.00 | 81 | 1017.0 |
| 20260509180042 | 57 | 343 | 12.0 | 17.0 | 0.00 | 0.00 | 0.00 | 81 | 1016.8 |
| 20260509174538 | 58 | 350 | 11.0 | 18.0 | 0.00 | 0.00 | 0.00 | 80 | 1016.8 |
| 20260509173055 | 58 | 9 | 11.0 | 18.0 | 0.00 | 0.00 | 0.00 | 79 | 1016.8 |
| 20260509171556 | 59 | 340 | 10.0 | 17.0 | 0.00 | 0.00 | 0.00 | 79 | 1016.8 |
| 20260509170045 | 60 | 309 | 8.0 | 17.0 | 0.00 | 0.00 | 0.00 | 79 | 1017.0 |
| 20260509164548 | 59 | 332 | 12.0 | 18.0 | 0.00 | 0.00 | 0.00 | 79 | 1016.9 |